Location: Zagreb
(45.8000°N, 16.0000°E)
Time: 20:33:58
(UTC+01:00)

Oscar 11 - Pass Details

Date: 30 October 2020
Orbit: 613 x 625 km, 97.6° (Epoch: 01 December)

Event Time Altitude Azimuth Distance (km) Brightness Sun altitude
Rises 17:38:30 0° 176° (S) 2,884 10.6 -9.9°
Reaches altitude 10° 17:40:43 10° 180° (S) 1,981 9.8 -10.2°
Maximum altitude 17:44:58 58° 259° (W) 726 7.8 -11.0°
Drops below altitude 10° 17:49:14 10° 340° (NNW) 1,990 9.8 -11.7°
Sets 17:51:28 0° 344° (NNW) 2,898 10.6 -12.1°
